Terug naar catalogus

STARLINK-33554

ActiefCommunicatieVLEO
NORAD 62103·PAYLOAD·🇺🇸 United States

Gelanceerd Nov 25, 2024 vanaf Cape Canaveral Space Force Station

Loading…

Volgende Passages (komende 24 uur)

TLE

VersSource: CelesTrak SupGP

Epoch: Sep 15, 2026, 02:10 UTC

1 62103C 24220R   26258.09076389 -.00035282  00000+0 -12780-2 0  2586
2 62103  42.9995 215.6058 0001062 267.8852   1.4256 15.27594142    15

Volg STARLINK-33554 in realtime met AllMySat

Download on the App Store